Year,Month,Day,Hour,Minute,Value (Times are PST for temperature in C)
2020,04,28,00,00,8.90
2020,04,28,00,01,8.90
2020,04,28,00,02,8.90
2020,04,28,00,03,8.90
2020,04,28,00,04,8.90
2020,04,28,00,05,8.90
2020,04,28,00,06,8.90
2020,04,28,00,07,8.90
2020,04,28,00,08,8.90
2020,04,28,00,09,8.90
2020,04,28,00,10,8.90
2020,04,28,00,11,8.90
2020,04,28,00,12,8.90
2020,04,28,00,13,8.90
2020,04,28,00,14,8.90
2020,04,28,00,15,8.90
2020,04,28,00,16,8.90
2020,04,28,00,17,8.90
2020,04,28,00,18,8.90
2020,04,28,00,19,8.90
2020,04,28,00,20,8.90
2020,04,28,00,21,8.90
2020,04,28,00,22,8.90
2020,04,28,00,23,8.90
2020,04,28,00,24,8.90
2020,04,28,00,25,8.90
2020,04,28,00,26,8.90
2020,04,28,00,27,8.80
2020,04,28,00,28,8.80
2020,04,28,00,29,8.80
2020,04,28,00,30,8.70
2020,04,28,00,31,8.70
2020,04,28,00,32,8.70
2020,04,28,00,33,8.70
2020,04,28,00,34,8.70
2020,04,28,00,35,8.60
2020,04,28,00,36,8.50
2020,04,28,00,37,8.50
2020,04,28,00,38,8.50
2020,04,28,00,39,8.40
2020,04,28,00,40,8.40
2020,04,28,00,41,8.40
2020,04,28,00,42,8.30
2020,04,28,00,43,8.30
2020,04,28,00,44,8.30
2020,04,28,00,45,8.20
2020,04,28,00,46,8.20
2020,04,28,00,47,8.20
2020,04,28,00,48,8.20
2020,04,28,00,49,8.10
2020,04,28,00,50,8.10
2020,04,28,00,51,8.10
2020,04,28,00,52,8.00
2020,04,28,00,53,8.00
2020,04,28,00,54,8.00
2020,04,28,00,55,8.00
2020,04,28,00,56,8.00
2020,04,28,00,57,8.00
2020,04,28,00,58,8.00
2020,04,28,00,59,8.00
2020,04,28,01,00,8.00
2020,04,28,01,01,8.10
2020,04,28,01,02,8.10
2020,04,28,01,03,8.10
2020,04,28,01,04,8.10
2020,04,28,01,05,8.20
2020,04,28,01,06,8.20
2020,04,28,01,07,8.10
2020,04,28,01,08,8.10
2020,04,28,01,09,8.10
2020,04,28,01,10,8.10
2020,04,28,01,11,8.10
2020,04,28,01,12,8.10
2020,04,28,01,13,8.10
2020,04,28,01,14,8.10
2020,04,28,01,15,8.10
2020,04,28,01,16,8.10
2020,04,28,01,17,8.10
2020,04,28,01,18,8.00
2020,04,28,01,19,8.00
2020,04,28,01,20,8.00
2020,04,28,01,21,8.00
2020,04,28,01,22,8.00
2020,04,28,01,23,8.00
2020,04,28,01,24,8.00
2020,04,28,01,25,7.90
2020,04,28,01,26,7.90
2020,04,28,01,27,7.90
2020,04,28,01,28,7.90
2020,04,28,01,29,7.90
2020,04,28,01,30,7.90
2020,04,28,01,31,7.90
2020,04,28,01,32,7.90
2020,04,28,01,33,7.90
2020,04,28,01,34,7.90
2020,04,28,01,35,7.90
2020,04,28,01,36,7.80
2020,04,28,01,37,7.80
2020,04,28,01,38,7.80
2020,04,28,01,39,7.80
2020,04,28,01,40,7.80
2020,04,28,01,41,7.80
2020,04,28,01,42,7.80
2020,04,28,01,43,7.80
2020,04,28,01,44,7.80
2020,04,28,01,45,7.80
2020,04,28,01,46,7.80
2020,04,28,01,47,7.70
2020,04,28,01,48,7.70
2020,04,28,01,49,7.60
2020,04,28,01,50,7.60
2020,04,28,01,51,7.60
2020,04,28,01,52,7.60
2020,04,28,01,53,7.50
2020,04,28,01,54,7.50
2020,04,28,01,55,7.50
2020,04,28,01,56,7.50
2020,04,28,01,57,7.50
2020,04,28,01,58,7.50
2020,04,28,01,59,7.50
2020,04,28,02,00,7.50
2020,04,28,02,01,7.50
2020,04,28,02,02,7.50
2020,04,28,02,03,7.40
2020,04,28,02,04,7.40
2020,04,28,02,05,7.40
2020,04,28,02,06,7.40
2020,04,28,02,07,7.40
2020,04,28,02,08,7.40
2020,04,28,02,09,7.40
2020,04,28,02,10,7.40
2020,04,28,02,11,7.40
2020,04,28,02,12,7.30
2020,04,28,02,13,7.30
2020,04,28,02,14,7.30
2020,04,28,02,15,7.30
2020,04,28,02,16,7.20
2020,04,28,02,17,7.20
2020,04,28,02,18,7.10
2020,04,28,02,19,7.10
2020,04,28,02,20,7.10
2020,04,28,02,21,7.00
2020,04,28,02,22,7.00
2020,04,28,02,23,7.00
2020,04,28,02,24,7.00
2020,04,28,02,25,7.00
2020,04,28,02,26,7.00
2020,04,28,02,27,7.00
2020,04,28,02,28,7.00
2020,04,28,02,29,7.00
2020,04,28,02,30,7.00
2020,04,28,02,31,7.00
2020,04,28,02,32,6.90
2020,04,28,02,33,6.90
2020,04,28,02,34,6.80
2020,04,28,02,35,6.80
2020,04,28,02,36,6.80
2020,04,28,02,37,6.80
2020,04,28,02,38,6.80
2020,04,28,02,39,6.80
2020,04,28,02,40,6.70
2020,04,28,02,41,6.70
2020,04,28,02,42,6.70
2020,04,28,02,43,6.70
2020,04,28,02,44,6.70
2020,04,28,02,45,6.70
2020,04,28,02,46,6.60
2020,04,28,02,47,6.60
2020,04,28,02,48,6.60
2020,04,28,02,49,6.60
2020,04,28,02,50,6.60
2020,04,28,02,51,6.60
2020,04,28,02,52,6.60
2020,04,28,02,53,6.60
2020,04,28,02,54,6.60
2020,04,28,02,55,6.60
2020,04,28,02,56,6.60
2020,04,28,02,57,6.60
2020,04,28,02,58,6.60
2020,04,28,02,59,6.60
2020,04,28,03,00,6.60
2020,04,28,03,01,6.60
2020,04,28,03,02,6.60
2020,04,28,03,03,6.60
2020,04,28,03,04,6.60
2020,04,28,03,05,6.60
2020,04,28,03,06,6.60
2020,04,28,04,14,5.90
2020,04,28,04,15,5.90
2020,04,28,04,16,5.90
2020,04,28,04,17,5.90
2020,04,28,04,18,6.00
2020,04,28,04,19,6.00
2020,04,28,04,20,6.00
2020,04,28,04,21,6.00
2020,04,28,04,22,6.10
2020,04,28,04,23,6.10
2020,04,28,04,24,6.10
2020,04,28,04,25,6.10
2020,04,28,04,26,6.10
2020,04,28,04,27,6.10
2020,04,28,04,28,6.20
2020,04,28,04,29,6.20
2020,04,28,04,30,6.20
2020,04,28,04,31,6.20
2020,04,28,04,32,6.20
2020,04,28,04,33,6.20
2020,04,28,04,34,6.20
2020,04,28,04,35,6.20
2020,04,28,04,36,6.20
2020,04,28,04,37,6.20
2020,04,28,04,38,6.20
2020,04,28,04,39,6.20
2020,04,28,04,40,6.20
2020,04,28,04,41,6.20
2020,04,28,04,42,6.20
2020,04,28,04,43,6.20
2020,04,28,04,44,6.20
2020,04,28,04,45,6.20
2020,04,28,04,46,6.20
2020,04,28,04,47,6.20
2020,04,28,04,48,6.20
2020,04,28,04,49,6.20
2020,04,28,04,50,6.20
2020,04,28,04,51,6.20
2020,04,28,04,52,6.20
2020,04,28,04,53,6.20
2020,04,28,04,54,6.20
2020,04,28,04,55,6.20
2020,04,28,04,56,6.20
2020,04,28,04,57,6.20
2020,04,28,04,58,6.20
2020,04,28,04,59,6.20
2020,04,28,05,00,6.20
2020,04,28,05,01,6.20
2020,04,28,05,02,6.20
2020,04,28,05,03,6.20
2020,04,28,05,04,6.20
2020,04,28,05,05,6.20
2020,04,28,05,06,6.20
2020,04,28,05,07,6.20
2020,04,28,05,08,6.20
2020,04,28,05,09,6.20
2020,04,28,05,10,6.20
2020,04,28,05,11,6.20
2020,04,28,05,12,6.20
2020,04,28,05,13,6.20
2020,04,28,05,14,6.20
2020,04,28,05,15,6.20
2020,04,28,05,16,6.20
2020,04,28,05,17,6.20
2020,04,28,05,18,6.20
2020,04,28,05,19,6.20
2020,04,28,05,20,6.20
2020,04,28,05,21,6.20
2020,04,28,05,22,6.20
2020,04,28,05,23,6.20
2020,04,28,05,24,6.20
2020,04,28,05,25,6.20
2020,04,28,05,26,6.20
2020,04,28,05,27,6.20
2020,04,28,05,28,6.20
2020,04,28,05,29,6.30
2020,04,28,05,30,6.20
2020,04,28,05,31,6.20
2020,04,28,05,32,6.20
2020,04,28,05,33,6.20
2020,04,28,05,34,6.20
2020,04,28,05,35,6.20
2020,04,28,05,36,6.20
2020,04,28,05,37,6.20
2020,04,28,05,38,6.20
2020,04,28,05,39,6.20
2020,04,28,05,40,6.20
2020,04,28,05,41,6.20
2020,04,28,05,42,6.20
2020,04,28,05,43,6.20
2020,04,28,05,44,6.20
2020,04,28,05,45,6.20
2020,04,28,05,46,6.20
2020,04,28,05,47,6.20
2020,04,28,05,48,6.20
2020,04,28,05,49,6.20
2020,04,28,05,50,6.20
2020,04,28,05,51,6.20
2020,04,28,05,52,6.20
2020,04,28,05,53,6.20
2020,04,28,05,54,6.20
2020,04,28,05,55,6.20
2020,04,28,05,56,6.20
2020,04,28,05,57,6.20
2020,04,28,05,58,6.20
2020,04,28,05,59,6.20
2020,04,28,06,00,6.20
2020,04,28,06,01,6.20
2020,04,28,06,02,6.20
2020,04,28,06,03,6.20
2020,04,28,06,04,6.20
2020,04,28,06,05,6.20
2020,04,28,06,06,6.20
2020,04,28,06,07,6.20
2020,04,28,06,08,6.10
2020,04,28,06,09,6.10
2020,04,28,06,10,6.10
2020,04,28,06,11,6.10
2020,04,28,06,12,6.10
2020,04,28,06,13,6.10
2020,04,28,06,14,6.10
2020,04,28,06,15,6.10
2020,04,28,06,16,6.10
2020,04,28,06,17,6.10
2020,04,28,06,18,6.10
2020,04,28,06,19,6.10
2020,04,28,06,20,6.10
2020,04,28,06,21,6.10
2020,04,28,06,22,6.10
2020,04,28,06,23,6.10
2020,04,28,06,24,6.10
2020,04,28,06,25,6.10
2020,04,28,06,26,6.10
2020,04,28,06,27,6.10
2020,04,28,06,28,6.10
2020,04,28,06,29,6.20
2020,04,28,06,30,6.20
2020,04,28,06,31,6.20
2020,04,28,06,32,6.20
2020,04,28,06,33,6.20
2020,04,28,06,34,6.20
2020,04,28,06,35,6.20
2020,04,28,06,36,6.20
2020,04,28,06,37,6.20
2020,04,28,06,38,6.20
2020,04,28,06,39,6.20
2020,04,28,06,40,6.20
2020,04,28,06,41,6.20
2020,04,28,06,42,6.20
2020,04,28,06,43,6.20
2020,04,28,06,44,6.20
2020,04,28,06,45,6.20
2020,04,28,06,46,6.20
2020,04,28,06,47,6.20
2020,04,28,06,48,6.20
2020,04,28,06,49,6.30
2020,04,28,06,50,6.30
2020,04,28,06,51,6.30
2020,04,28,06,52,6.30
2020,04,28,06,53,6.30
2020,04,28,06,54,6.30
2020,04,28,06,55,6.40
2020,04,28,06,56,6.40
2020,04,28,06,57,6.40
2020,04,28,06,58,6.40
2020,04,28,06,59,6.40
2020,04,28,07,00,6.40
2020,04,28,07,01,6.40
2020,04,28,07,02,6.40
2020,04,28,07,03,6.40
2020,04,28,07,04,6.40
2020,04,28,07,05,6.40
2020,04,28,07,06,6.40
2020,04,28,07,07,6.50
2020,04,28,07,08,6.60
2020,04,28,07,09,6.60
2020,04,28,07,10,6.60
2020,04,28,07,11,6.60
2020,04,28,07,12,6.60
2020,04,28,07,13,6.60
2020,04,28,07,14,6.60
2020,04,28,07,15,6.70
2020,04,28,07,16,6.70
2020,04,28,07,17,6.70
2020,04,28,07,18,6.70
2020,04,28,07,19,6.70
2020,04,28,07,20,6.80
2020,04,28,07,21,6.80
2020,04,28,07,22,6.80
2020,04,28,07,23,6.80
2020,04,28,07,24,6.80
2020,04,28,07,25,6.80
2020,04,28,07,26,6.90
2020,04,28,07,27,6.90
2020,04,28,07,28,6.90
2020,04,28,07,29,6.90
2020,04,28,07,30,7.00
2020,04,28,07,31,7.00
2020,04,28,07,32,7.00
2020,04,28,07,33,7.00
2020,04,28,07,34,7.10
2020,04,28,07,35,7.10
2020,04,28,07,36,7.10
2020,04,28,07,37,7.20
2020,04,28,07,38,7.20
2020,04,28,07,39,7.20
2020,04,28,07,40,7.30
2020,04,28,07,41,7.30
2020,04,28,07,42,7.30
2020,04,28,07,43,7.30
2020,04,28,07,44,7.30
2020,04,28,07,45,7.40
2020,04,28,07,46,7.40
2020,04,28,07,47,7.50
2020,04,28,07,48,7.50
2020,04,28,07,49,7.60
2020,04,28,07,50,7.60
2020,04,28,07,51,7.70
2020,04,28,07,52,7.70
2020,04,28,07,53,7.80
2020,04,28,07,54,7.80
2020,04,28,07,55,7.80
2020,04,28,07,56,7.90
2020,04,28,07,57,7.90
2020,04,28,07,58,8.00
2020,04,28,07,59,8.00
2020,04,28,08,00,8.10
2020,04,28,08,01,8.10
2020,04,28,08,02,8.10
2020,04,28,08,03,8.20
2020,04,28,08,04,8.20
2020,04,28,08,05,8.20
2020,04,28,08,06,8.30
2020,04,28,08,07,8.30
2020,04,28,08,08,8.30
2020,04,28,08,09,8.40
2020,04,28,08,10,8.40
2020,04,28,08,11,8.40
2020,04,28,08,12,8.50
2020,04,28,08,13,8.50
2020,04,28,08,14,8.60
2020,04,28,08,15,8.60
2020,04,28,08,16,8.70
2020,04,28,08,17,8.70
2020,04,28,08,18,8.70
2020,04,28,08,19,8.70
2020,04,28,08,20,8.80
2020,04,28,08,21,8.80
2020,04,28,08,22,8.90
2020,04,28,08,23,8.90
2020,04,28,08,24,9.00
2020,04,28,08,25,9.00
2020,04,28,08,26,9.10
2020,04,28,08,27,9.10
2020,04,28,08,28,9.20
2020,04,28,08,29,9.20
2020,04,28,08,30,9.20
2020,04,28,08,31,9.30
2020,04,28,08,32,9.30
2020,04,28,08,33,9.40
2020,04,28,08,34,9.40
2020,04,28,08,35,9.40
2020,04,28,08,36,9.50
2020,04,28,08,37,9.50
2020,04,28,08,38,9.60
2020,04,28,08,39,9.60
2020,04,28,08,40,9.70
2020,04,28,08,41,9.70
2020,04,28,08,42,9.80
2020,04,28,08,43,9.80
2020,04,28,08,44,9.80
2020,04,28,08,45,9.90
2020,04,28,08,46,9.90
2020,04,28,08,47,10.00
2020,04,28,08,48,10.10
2020,04,28,08,49,10.10
2020,04,28,08,50,10.20
2020,04,28,08,51,10.30
2020,04,28,08,52,10.30
2020,04,28,08,53,10.40
2020,04,28,08,54,10.40
2020,04,28,08,55,10.40
2020,04,28,08,56,10.40
2020,04,28,08,57,10.50
2020,04,28,08,58,10.60
2020,04,28,08,59,10.60
2020,04,28,09,00,10.70
2020,04,28,09,01,10.70
2020,04,28,09,02,10.80
2020,04,28,09,03,10.80
2020,04,28,09,04,10.80
2020,04,28,09,05,10.90
2020,04,28,09,06,10.90
2020,04,28,09,07,10.90
2020,04,28,09,08,10.90
2020,04,28,09,09,10.90
2020,04,28,09,10,10.90
2020,04,28,09,11,10.90
2020,04,28,09,12,10.90
2020,04,28,09,13,10.90
2020,04,28,09,14,10.90
2020,04,28,09,15,10.90
2020,04,28,09,16,10.90
2020,04,28,09,17,11.00
2020,04,28,09,18,11.10
2020,04,28,09,19,11.10
2020,04,28,09,20,11.10
2020,04,28,09,21,11.10
2020,04,28,09,22,11.10
2020,04,28,09,23,11.10
2020,04,28,09,24,11.10
2020,04,28,09,25,11.10
2020,04,28,09,26,11.10
2020,04,28,09,27,11.10
2020,04,28,09,28,11.10
2020,04,28,09,29,11.10
2020,04,28,09,30,11.10
2020,04,28,09,31,11.10
2020,04,28,09,32,11.10
2020,04,28,09,33,11.10
2020,04,28,09,34,11.10
2020,04,28,09,35,11.10
2020,04,28,09,36,11.10
2020,04,28,09,37,11.20
2020,04,28,09,38,11.20
2020,04,28,09,39,11.30
2020,04,28,09,40,11.30
2020,04,28,09,41,11.30
2020,04,28,09,42,11.30
2020,04,28,09,43,11.30
2020,04,28,09,44,11.30
2020,04,28,09,45,11.30
2020,04,28,09,46,11.40
2020,04,28,09,47,11.40
2020,04,28,09,48,11.50
2020,04,28,09,49,11.60
2020,04,28,09,50,11.60
2020,04,28,09,51,11.60
2020,04,28,09,52,11.60
2020,04,28,09,53,11.60
2020,04,28,09,54,11.60
2020,04,28,09,55,11.60
2020,04,28,09,56,11.60
2020,04,28,09,57,11.50
2020,04,28,09,58,11.40
2020,04,28,09,59,11.40
2020,04,28,10,00,11.40
2020,04,28,10,01,11.40
2020,04,28,10,02,11.30
2020,04,28,10,03,11.30
2020,04,28,10,04,11.40
2020,04,28,10,05,11.40
2020,04,28,10,06,11.40
2020,04,28,10,07,11.40
2020,04,28,10,08,11.40
2020,04,28,10,09,11.40
2020,04,28,10,10,11.50
2020,04,28,10,11,11.60
2020,04,28,10,12,11.60
2020,04,28,10,13,11.60
2020,04,28,10,14,11.60
2020,04,28,10,15,11.60
2020,04,28,10,16,11.60
2020,04,28,10,17,11.60
2020,04,28,10,18,11.60
2020,04,28,10,19,11.50
2020,04,28,10,20,11.40
2020,04,28,10,21,11.40
2020,04,28,10,22,11.40
2020,04,28,10,23,11.40
2020,04,28,10,24,11.40
2020,04,28,10,25,11.40
2020,04,28,10,26,11.40
2020,04,28,10,27,11.40
2020,04,28,10,28,11.40
2020,04,28,10,29,11.40
2020,04,28,10,30,11.40
2020,04,28,10,31,11.40
2020,04,28,10,32,11.50
2020,04,28,10,33,11.60
2020,04,28,10,34,11.60
2020,04,28,10,35,11.60
2020,04,28,10,36,11.60
2020,04,28,10,37,11.70
2020,04,28,10,38,11.80
2020,04,28,10,39,11.80
2020,04,28,10,40,11.80
2020,04,28,10,41,11.80
2020,04,28,10,42,11.80
2020,04,28,10,43,11.80
2020,04,28,10,44,11.80
2020,04,28,10,45,11.90
2020,04,28,10,46,11.90
2020,04,28,10,47,12.00
2020,04,28,10,48,12.00
2020,04,28,10,49,11.90
2020,04,28,10,50,11.90
2020,04,28,10,51,11.80
2020,04,28,10,52,11.80
2020,04,28,10,53,11.80
2020,04,28,10,54,11.90
2020,04,28,10,55,11.90
2020,04,28,10,56,11.80
2020,04,28,10,57,11.80
2020,04,28,10,58,11.80
2020,04,28,10,59,11.80
2020,04,28,11,00,11.80
2020,04,28,11,01,11.90
2020,04,28,11,02,11.90
2020,04,28,11,03,11.90
2020,04,28,11,04,11.90
2020,04,28,11,05,11.90
2020,04,28,11,06,12.00
2020,04,28,11,07,12.00
2020,04,28,11,08,12.00
2020,04,28,11,09,12.10
2020,04,28,11,10,12.10
2020,04,28,11,11,12.10
2020,04,28,11,12,12.20
2020,04,28,11,13,12.20
2020,04,28,11,14,12.20
2020,04,28,11,15,12.20
2020,04,28,11,16,12.20
2020,04,28,11,17,12.20
2020,04,28,11,18,12.10
2020,04,28,11,19,12.10
2020,04,28,11,20,12.10
2020,04,28,11,21,12.00
2020,04,28,11,22,11.90
2020,04,28,11,23,11.90
2020,04,28,11,24,11.90
2020,04,28,11,25,11.90
2020,04,28,11,26,11.80
2020,04,28,11,27,11.80
2020,04,28,11,28,11.80
2020,04,28,11,29,11.80
2020,04,28,11,30,11.80
2020,04,28,11,31,11.80
2020,04,28,11,32,11.80
2020,04,28,11,33,11.80
2020,04,28,11,34,11.80
2020,04,28,11,35,11.80
2020,04,28,11,36,11.80
2020,04,28,11,37,11.80
2020,04,28,11,38,11.80
2020,04,28,11,39,11.80
2020,04,28,11,40,11.80
2020,04,28,11,41,11.80
2020,04,28,11,42,11.80
2020,04,28,11,43,11.80
2020,04,28,11,44,11.80
2020,04,28,11,45,11.80
2020,04,28,11,46,11.80
2020,04,28,11,47,11.80
2020,04,28,11,48,11.90
2020,04,28,11,49,11.90
2020,04,28,11,50,11.90
2020,04,28,11,51,11.90
2020,04,28,11,52,11.90
2020,04,28,11,53,12.00
2020,04,28,11,54,12.00
2020,04,28,11,55,12.00
2020,04,28,11,56,12.00
2020,04,28,11,57,12.00
2020,04,28,11,58,11.90
2020,04,28,11,59,11.90
2020,04,28,12,00,11.90
2020,04,28,12,01,11.90
2020,04,28,12,02,11.90
2020,04,28,12,03,11.90
2020,04,28,12,04,11.90
2020,04,28,12,05,12.00
2020,04,28,12,06,12.00
2020,04,28,12,07,12.00
2020,04,28,12,08,12.00
2020,04,28,12,09,12.10
2020,04,28,12,10,12.20
2020,04,28,12,11,12.20
2020,04,28,12,12,12.30
2020,04,28,12,13,12.30
2020,04,28,12,14,12.20
2020,04,28,12,15,12.20
2020,04,28,12,16,12.20
2020,04,28,12,17,12.20
2020,04,28,12,18,12.20
2020,04,28,12,19,12.20
2020,04,28,12,20,12.30
2020,04,28,12,21,12.30
2020,04,28,12,22,12.30
2020,04,28,12,23,12.30
2020,04,28,12,24,12.30
2020,04,28,12,25,12.30
2020,04,28,12,26,12.30
2020,04,28,12,27,12.30
2020,04,28,12,28,12.30
2020,04,28,12,29,12.30
2020,04,28,12,30,12.30
2020,04,28,12,31,12.30
2020,04,28,12,32,12.30
2020,04,28,12,33,12.30
2020,04,28,12,34,12.20
2020,04,28,12,35,12.20
2020,04,28,12,36,12.20
2020,04,28,12,37,12.10
2020,04,28,12,38,12.10
2020,04,28,12,39,12.10
2020,04,28,12,40,12.10
2020,04,28,12,41,12.00
2020,04,28,12,42,12.00
2020,04,28,12,43,11.90
2020,04,28,12,44,11.90
2020,04,28,12,45,11.90
2020,04,28,12,46,11.90
2020,04,28,12,47,11.90
2020,04,28,12,48,12.00
2020,04,28,12,49,12.00
2020,04,28,12,50,12.10
2020,04,28,12,51,12.20
2020,04,28,12,52,12.20
2020,04,28,12,53,12.20
2020,04,28,12,54,12.20
2020,04,28,12,55,12.20
2020,04,28,12,56,12.20
2020,04,28,12,57,12.20
2020,04,28,12,58,12.30
2020,04,28,12,59,12.30
2020,04,28,13,00,12.30
2020,04,28,13,01,12.30
2020,04,28,13,02,12.40
2020,04,28,13,03,12.40
2020,04,28,13,04,12.40
2020,04,28,13,05,12.40
2020,04,28,13,06,12.40
2020,04,28,13,07,12.40
2020,04,28,13,08,12.30
2020,04,28,13,09,12.30
2020,04,28,13,10,12.30
2020,04,28,13,11,12.30
2020,04,28,13,12,12.30
2020,04,28,13,13,12.30
2020,04,28,13,14,12.30
2020,04,28,13,15,12.30
2020,04,28,13,16,12.40
2020,04,28,13,17,12.50
2020,04,28,13,18,12.50
2020,04,28,13,19,12.60
2020,04,28,13,20,12.60
2020,04,28,13,21,12.60
2020,04,28,13,22,12.50
2020,04,28,13,23,12.50
2020,04,28,13,24,12.40
2020,04,28,13,25,12.40
2020,04,28,13,26,12.30
2020,04,28,13,27,12.30
2020,04,28,13,28,12.30
2020,04,28,13,29,12.30
2020,04,28,13,30,12.20
2020,04,28,13,31,12.20
2020,04,28,13,32,12.10
2020,04,28,13,33,12.20
2020,04,28,13,34,12.20
2020,04,28,13,35,12.20
2020,04,28,13,36,12.20
2020,04,28,13,37,12.20
2020,04,28,13,38,12.10
2020,04,28,13,39,12.10
2020,04,28,13,40,12.10
2020,04,28,13,41,12.10
2020,04,28,13,42,12.10
2020,04,28,13,43,12.10
2020,04,28,13,44,12.10
2020,04,28,13,45,12.10
2020,04,28,13,46,12.10
2020,04,28,13,47,12.10
2020,04,28,13,48,12.20
2020,04,28,13,49,12.20
2020,04,28,13,50,12.20
2020,04,28,13,51,12.20
2020,04,28,13,52,12.30
2020,04,28,13,53,12.30
2020,04,28,13,54,12.30
2020,04,28,13,55,12.30
2020,04,28,13,56,12.30
2020,04,28,13,57,12.40
2020,04,28,13,58,12.40
2020,04,28,13,59,12.30
2020,04,28,14,00,12.30
2020,04,28,14,01,12.30
2020,04,28,14,02,12.30
2020,04,28,14,03,12.30
2020,04,28,14,04,12.30
2020,04,28,14,05,12.30
2020,04,28,14,06,12.30
2020,04,28,14,07,12.30
2020,04,28,14,08,12.30
2020,04,28,14,09,12.30
2020,04,28,14,10,12.40
2020,04,28,14,11,12.40
2020,04,28,14,12,12.40
2020,04,28,14,13,12.40
2020,04,28,14,14,12.50
2020,04,28,14,15,12.50
2020,04,28,14,16,12.50
2020,04,28,14,17,12.50
2020,04,28,14,18,12.50
2020,04,28,14,19,12.50
2020,04,28,14,20,12.60
2020,04,28,14,21,12.60
2020,04,28,14,22,12.60
2020,04,28,14,23,12.60
2020,04,28,14,24,12.60
2020,04,28,14,25,12.60
2020,04,28,14,26,12.60
2020,04,28,14,27,12.50
2020,04,28,14,28,12.50
2020,04,28,14,29,12.50
2020,04,28,14,30,12.50
2020,04,28,14,31,12.60
2020,04,28,14,32,12.60
2020,04,28,14,33,12.70
2020,04,28,14,34,12.70
2020,04,28,14,35,12.70
2020,04,28,14,36,12.70
2020,04,28,14,37,12.80
2020,04,28,14,38,12.80
2020,04,28,14,39,12.80
2020,04,28,14,40,12.70
2020,04,28,14,41,12.70
2020,04,28,14,42,12.70
2020,04,28,14,43,12.80
2020,04,28,14,44,12.80
2020,04,28,14,45,12.80
2020,04,28,14,46,12.80
2020,04,28,14,47,12.80
2020,04,28,14,48,12.70
2020,04,28,14,49,12.70
2020,04,28,14,50,12.70
2020,04,28,14,51,12.70
2020,04,28,14,52,12.60
2020,04,28,14,53,12.60
2020,04,28,14,54,12.60
2020,04,28,14,55,12.50
2020,04,28,14,56,12.40
2020,04,28,14,57,12.30
2020,04,28,14,58,12.30
2020,04,28,14,59,12.20
2020,04,28,15,00,12.10
2020,04,28,15,01,12.00
2020,04,28,15,02,12.00
2020,04,28,15,03,11.90
2020,04,28,15,04,11.90
2020,04,28,15,05,11.80
2020,04,28,15,06,11.80
2020,04,28,15,07,11.80
2020,04,28,15,08,11.70
2020,04,28,15,09,11.70
2020,04,28,15,10,11.70
2020,04,28,15,11,11.60
2020,04,28,15,12,11.60
2020,04,28,15,13,11.60
2020,04,28,15,14,11.60
2020,04,28,15,15,11.60
2020,04,28,15,16,11.60
2020,04,28,15,17,11.60
2020,04,28,15,18,11.60
2020,04,28,15,19,11.60
2020,04,28,15,20,11.60
2020,04,28,15,21,11.60
2020,04,28,15,22,11.60
2020,04,28,15,23,11.50
2020,04,28,15,24,11.40
2020,04,28,15,25,11.40
2020,04,28,15,26,11.30
2020,04,28,15,27,11.30
2020,04,28,15,28,11.30
2020,04,28,15,29,11.30
2020,04,28,15,30,11.30
2020,04,28,15,31,11.30
2020,04,28,15,32,11.30
2020,04,28,15,33,11.30
2020,04,28,15,34,11.30
2020,04,28,15,35,11.30
2020,04,28,15,36,11.30
2020,04,28,15,37,11.30
2020,04,28,15,38,11.30
2020,04,28,15,39,11.30
2020,04,28,15,40,11.30
2020,04,28,15,41,11.30
2020,04,28,15,42,11.30
2020,04,28,15,43,11.30
2020,04,28,15,44,11.40
2020,04,28,15,45,11.40
2020,04,28,15,46,11.40
2020,04,28,15,47,11.50
2020,04,28,15,48,11.60
2020,04,28,15,49,11.60
2020,04,28,15,50,11.60
2020,04,28,15,51,11.60
2020,04,28,15,52,11.60
2020,04,28,15,53,11.60
2020,04,28,15,54,11.60
2020,04,28,15,55,11.60
2020,04,28,15,56,11.70
2020,04,28,15,57,11.70
2020,04,28,15,58,11.70
2020,04,28,15,59,11.80
2020,04,28,16,00,11.80
2020,04,28,16,01,11.70
2020,04,28,16,02,11.70
2020,04,28,16,03,11.70
2020,04,28,16,04,11.70
2020,04,28,16,05,11.70
2020,04,28,16,06,11.80
2020,04,28,16,07,11.70
2020,04,28,16,08,11.70
2020,04,28,16,09,11.60
2020,04,28,16,10,11.60
2020,04,28,16,11,11.60
2020,04,28,16,12,11.60
2020,04,28,16,13,11.60
2020,04,28,16,14,11.50
2020,04,28,16,15,11.40
2020,04,28,16,16,11.40
2020,04,28,16,17,11.40
2020,04,28,16,18,11.30
2020,04,28,16,19,11.20
2020,04,28,16,20,11.10
2020,04,28,16,21,11.10
2020,04,28,16,22,10.90
2020,04,28,16,23,10.90
2020,04,28,16,24,10.90
2020,04,28,16,25,10.80
2020,04,28,16,26,10.80
2020,04,28,16,27,10.70
2020,04,28,16,28,10.70
2020,04,28,16,29,10.70
2020,04,28,16,30,10.80
2020,04,28,16,31,10.80
2020,04,28,16,32,10.70
2020,04,28,16,33,10.70
2020,04,28,16,34,10.70
2020,04,28,16,35,10.70
2020,04,28,16,36,10.70
2020,04,28,16,37,10.70
2020,04,28,16,38,10.70
2020,04,28,16,39,10.70
2020,04,28,16,40,10.70
2020,04,28,16,41,10.70
2020,04,28,16,42,10.70
2020,04,28,16,43,10.70
2020,04,28,16,44,10.80
2020,04,28,16,45,10.80
2020,04,28,16,46,10.80
2020,04,28,16,47,10.90
2020,04,28,16,48,10.90
2020,04,28,16,49,10.90
2020,04,28,16,50,10.90
2020,04,28,16,51,10.90
2020,04,28,16,52,10.90
2020,04,28,16,53,10.90
2020,04,28,16,54,10.90
2020,04,28,16,55,10.90
2020,04,28,16,56,10.90
2020,04,28,16,57,11.00
2020,04,28,16,58,11.10
2020,04,28,16,59,11.10
2020,04,28,17,00,11.10
2020,04,28,17,01,11.10
2020,04,28,17,02,11.20
2020,04,28,17,03,11.30
2020,04,28,17,04,11.30
2020,04,28,17,05,11.30
2020,04,28,17,06,11.30
2020,04,28,17,07,11.30
2020,04,28,17,08,11.40
2020,04,28,17,09,11.40
2020,04,28,17,10,11.40
2020,04,28,17,11,11.40
2020,04,28,17,12,11.60
2020,04,28,17,13,11.60
2020,04,28,17,14,11.60
2020,04,28,17,15,11.60
2020,04,28,17,16,11.60
2020,04,28,17,17,11.60
2020,04,28,17,18,11.60
2020,04,28,17,19,11.60
2020,04,28,17,20,11.60
2020,04,28,17,21,11.70
2020,04,28,17,22,11.70
2020,04,28,17,23,11.70
2020,04,28,17,24,11.80
2020,04,28,17,25,11.80
2020,04,28,17,26,11.80
2020,04,28,17,27,11.80
2020,04,28,17,28,11.80
2020,04,28,17,29,11.80
2020,04,28,17,30,11.80
2020,04,28,17,31,11.80
2020,04,28,17,32,11.80
2020,04,28,17,33,11.80
2020,04,28,17,34,11.80
2020,04,28,17,35,11.80
2020,04,28,17,36,11.80
2020,04,28,17,37,11.80
2020,04,28,17,38,11.80
2020,04,28,17,39,11.80
2020,04,28,17,40,11.80
2020,04,28,17,41,11.80
2020,04,28,17,42,11.80
2020,04,28,17,43,11.80
2020,04,28,17,44,11.70
2020,04,28,17,45,11.70
2020,04,28,17,46,11.70
2020,04,28,17,47,11.70
2020,04,28,17,48,11.70
2020,04,28,17,49,11.60
2020,04,28,17,50,11.60
2020,04,28,17,51,11.60
2020,04,28,17,52,11.60
2020,04,28,17,53,11.60
2020,04,28,17,54,11.60
2020,04,28,17,55,11.60
2020,04,28,17,56,11.60
2020,04,28,17,57,11.60
2020,04,28,17,58,11.60
2020,04,28,17,59,11.60
2020,04,28,18,00,11.60
2020,04,28,18,01,11.60
2020,04,28,18,02,11.60
2020,04,28,18,03,11.60
2020,04,28,18,04,11.60
2020,04,28,18,05,11.50
2020,04,28,18,06,11.40
2020,04,28,18,07,11.40
2020,04,28,18,08,11.40
2020,04,28,18,09,11.40
2020,04,28,18,10,11.40
2020,04,28,18,11,11.40
2020,04,28,18,12,11.40
2020,04,28,18,13,11.40
2020,04,28,18,14,11.30
2020,04,28,18,15,11.30
2020,04,28,18,16,11.30
2020,04,28,18,17,11.30
2020,04,28,18,18,11.40
2020,04,28,18,19,11.40
2020,04,28,18,20,11.40
2020,04,28,18,21,11.40
2020,04,28,18,22,11.40
2020,04,28,18,23,11.40
2020,04,28,18,24,11.40
2020,04,28,18,25,11.40
2020,04,28,18,26,11.40
2020,04,28,18,27,11.40
2020,04,28,18,28,11.40
2020,04,28,18,29,11.50
2020,04,28,18,30,11.60
2020,04,28,18,31,11.60
2020,04,28,18,32,11.50
2020,04,28,18,33,11.40
2020,04,28,18,34,11.40
2020,04,28,18,35,11.40
2020,04,28,18,36,11.40
2020,04,28,18,37,11.40
2020,04,28,18,38,11.40
2020,04,28,18,39,11.40
2020,04,28,18,40,11.50
2020,04,28,18,41,11.60
2020,04,28,18,42,11.60
2020,04,28,18,43,11.60
2020,04,28,18,44,11.60
2020,04,28,18,45,11.50
2020,04,28,18,46,11.40